Regional Weather Roundup
Issued by NWS

Home | Current Version | Previous Version | Graphics & Text | Print | Product List | Glossary On
Versions: 1 2 3 4 5 6 7 8 9 10 11 12 13 14 15 16 17 18 19 20 21 22 23 24 25 26 27 28 29 30 31 32 33 34 35 36 37 38 39 40 41 42 43 44 45 46 47 48 49 50
000
ASUS45 KTFX 211319
RWRMT
MONTANA HOURLY WEATHER ROUNDUP
NATIONAL WEATHER SERVICE GREAT FALLS MT
719 AM MDT THU AUG 21 2014

NOTE: "FAIR" INDICATES FEW OR NO CLOUDS BELOW 12000 FEET WITH NO
SIGNIFICANT WEATHER AND/OR OBSTRUCTIONS TO VISIBILITY.

* THESE STATIONS ARE NOT UNDER NWS QUALITY CONTROL. THEY DO NOT
   REPORT WEATHER SUCH AS PRECIPITATION OR FOG.

MTZ001>007-043-211400-
WEST OF THE DIVIDE
CITY           SKY/WX    TMP DP  RH WIND       PRES   REMARKS
KALISPELL      CLOUDY    55  50  83 N8        30.01S
MISSOULA       PTCLDY    52  48  86 CALM      30.02R
BUTTE          CLOUDY    48  46  93 S3        30.09R
MULLAN PASS    FAIR      50  45  83 CALM      30.07R
* ESSEX        N/A       51  49  93 E6         N/A
* LINCOLN      N/A       49  48  96 NE2        N/A
* LOOKOUT PASS N/A       48  46  93 SE1        N/A
* POLSON       N/A       51  51 100 N1         N/A
* RONAN APT    PTCLDY    55  54  96 N/A        N/A
* SEELEY LAKE  N/A       48  47  96 NE2        N/A
* THOMP F APT  PTCLDY    55  54  96 N/A        N/A
* YAAK HILL    N/A       53  51  93 NW1        N/A
$$

MTZ008-052>055-211400-
SOUTHWEST MONTANA
CITY           SKY/WX    TMP DP  RH WIND       PRES   REMARKS
BOZEMAN        CLOUDY    55  54  96 CALM      30.05S
DILLON         LGT RAIN  52  50  93 CALM      30.07R
W YELLOWSTONE  CLOUDY    46  45  96 CALM      30.14R
* THREE FORKS  CLOUDY    55  55 100 N/A        N/A
* BOULDER HILL N/A       47  44  89 NE2        N/A
* MONIDA PASS  N/A       48  48 100 SE8        N/A
* RAYNOLDS PAS N/A       48  27  44 SE9G14     N/A
* WHITEHALL    N/A       54  51  90 N3         N/A
* WISE RIVER   N/A       48  46  93 W2         N/A
$$

MTZ009>010-012-014-046-048-049-054-211400-
EAST SLOPES AND CENTRAL MONTANA
CITY           SKY/WX    TMP DP  RH WIND       PRES   REMARKS
CUT BANK       CLOUDY    52  48  86 N10       30.08S
GREAT FALLS    CLOUDY    54  54 100 N7        30.05R
HELENA         CLOUDY    55  50  83 W3        30.04S
MALMSTROM AFB  CLOUDY    55  54  96 NW5       30.06R
* CONRAD       MOCLDY    54  52  93 NW7        N/A
* DEARBORN     N/A       56  51  83 SW4        N/A
* EAST GLACIER N/A       46  46 100 W1         N/A
* MONARCH      N/A       49  46  89 NW4        N/A
* PENDROY      N/A       49  49 100 N12G18     N/A
* ROGERS PASS  N/A       47  46  96 N/A        N/A
* SAINT MARY   N/A       47  46  96 E2         N/A
* SWEET GRASS  N/A       51  51 100 N11        N/A
* WHITE SULPH  N/A       49  47  93 S3         N/A
$$

MTZ011-013-016-021-035-040-045-047-050-051-211400-
NORTH CENTRAL MONTANA
CITY           SKY/WX    TMP DP  RH WIND       PRES   REMARKS
HAVRE          CLOUDY    59  57  93 W5        30.00R
LEWISTOWN      LGT RAIN  55  54  96 CALM      30.05S
* FORT BENTON  CLOUDY    57  55  93 SW6       30.04R
* CHESTER      N/A       53  51  93 NE5        N/A
* DENTON       N/A       55  54  96 NW4        N/A
* GEYSER       N/A       53  52  96 W12        N/A
* JUDITH GAP   N/A       52  52 100 NW12G17    N/A
* LOMA         N/A       57  57 100 SW1        N/A
$$

MTZ017>020-022>027-061-062-211400-
NORTHEAST MONTANA
CITY           SKY/WX    TMP DP  RH WIND       PRES   REMARKS
GLASGOW        CLOUDY    63  57  81 NE10      29.92R
GLENDIVE       MOCLDY    61  57  87 NW9       29.95R
JORDAN         CLOUDY    61  57  87 NW7       29.95R
SIDNEY         CLEAR     63  61  93 NE3       29.91R
WOLF POINT     CLOUDY    64  57  78 CALM      29.92R
* BEAVER HILL  N/A       59  58  97 N/A        N/A
* CIRCLE       N/A       61  59  93 N/A        N/A
* LINDSAY DVD  N/A       59  57  93 W11        N/A
* SACO         N/A       59  58  97 W4         N/A
$$

MTZ028>042-056>058-211400-
SOUTHCENTRAL AND SOUTHEAST MONTANA
CITY           SKY/WX    TMP DP  RH WIND       PRES   REMARKS
BAKER          CLEAR     55  54  96 W7        29.95R
BILLINGS       CLOUDY    59  55  87 NW5       30.01R
LIVINGSTON     CLOUDY    57  48  72 W8        30.04S
MILES CITY     CLOUDY    63  55  75 N5        29.94R
* LAUREL APT   CLOUDY    57  54  90 N/A        N/A
* ROUNDUP APT  CLOUDY    59  52  78 N/A        N/A
* ALZADA       N/A       56  52  87 W4         N/A
* HYSHAM       N/A       59  55  87 NW1        N/A
* LAME DEER    N/A       58  51  78 N8         N/A
* REED POINT   N/A       58  53  84 W2         N/A
* ROSCOE HILL  N/A       54  46  74 SW1        N/A
$$

REGIONAL REPORTS...DAKOTAS
CITY           SKY/WX    TMP DP  RH WIND       PRES   REMARKS
WILLISTON      FOG       57  57 100 SE5       29.89R
DICKINSON      CLEAR     57  55  93 W7        29.88R
BEACH          FOG       61  61 100 NW8       29.94R VSB M1/4
CROSBY         FOG       59  59 100 NW10      29.90R VSB M1/4
TIOGA          FOG       61  61 100 NW10      29.91R VSB 1/2
WATFORD CITY   FOG       61  61 100 W5        29.87R VSB 2
BISMARCK       CLOUDY    66  64  93 N8        29.82R
GRAND FORKS    CLOUDY    70  64  81 SE6       29.77R
FARGO          CLOUDY    72  68  87 SE5       29.74S
BUFFALO SD     PTCLDY    59  55  87 NW10      29.86R
RAPID CITY     MOCLDY    63  61  93 CALM      29.93R
$$

REGIONAL REPORTS...WYOMING/IDAHO/WASHINGTON
CITY           SKY/WX    TMP DP  RH WIND       PRES   REMARKS
GILLETTE       PTCLDY    61  54  78 VRB3      29.99R
SHERIDAN       CLOUDY    55  48  77 SW5       30.01R
CODY           CLOUDY    57  46  67 NE3       30.07R
YELLOWSTONE LA CLOUDY    45  45 100 CALM      30.21R
SALMON         PTCLDY    52  52 100 CALM      30.05R
MULLAN PASS    FAIR      50  45  83 CALM      30.07S
SAND POINT     FOG       48  48 100 CALM      30.00R VSB 2
SPOKANE        PTCLDY    57  54  90 SE5       29.97R
$$

REGIONAL REPORTS...ALBERTA
CITY           SKY/WX    TMP DP  RH WIND       PRES   REMARKS
CALGARY        MOCLDY    48  45  89 N7        30.15R
LETHBRIDGE     CLOUDY    54  52  93 NW7       30.09R
MEDICINE HAT   LGT RAIN  55  54  96 NW8       30.05R
EDMONTON       CLOUDY    46  46 100 W3        30.15R
WATERTON GATE  N/A       48  46  93 NE1        N/A
CARDSTON       N/A       48  48 100 NW7        N/A
MILK RIVER     N/A       52  50  93 N9         N/A
$$

REGIONAL REPORTS...SASKATCHEWAN
CITY           SKY/WX    TMP DP  RH WIND       PRES   REMARKS
SWIFT CURRENT  CLOUDY    57  57 100 N9        30.00R
MOOSE JAW      MOCLDY   N/A N/A N/A N8         N/A
REGINA         CLOUDY    59  57  93 N15       29.93R
VAL MARIE      N/A       57  57 100 NW6        N/A
ASSINIBOIA     N/A       59  57  93 N10        N/A
CORONACH       N/A       59  57  93 N9         N/A

$$



USA.gov is the U.S. government's official web portal to all federal, state and local government web resources and services.